Regional Weather Roundup
Issued by NWS

Home | Current Version | Previous Version | Graphics & Text | Print | Product List | Glossary Off
Versions: 1 2 3 4 5 6 7 8 9 10 11 12 13 14 15 16 17 18 19 20 21 22 23 24 25 26 27 28 29 30 31 32 33 34 35 36 37 38 39 40 41 42 43 44 45 46 47 48 49 50

000
ASUS43 KTOP 172159
RWRKS

WEATHER ROUNDUP FOR KANSAS
NATIONAL WEATHER SERVICE GOODLAND KS
400 PM CST SUN DEC 17 2017

NOTE:  "FAIR" INDICATES FEW OR NO CLOUDS BELOW 12,000 FEET WITH NO
SIGNIFICANT WEATHER AND/OR OBSTRUCTIONS TO VISIBILITY.

KSZ001>006-013>018-027>032-041>047-172300-
NORTHWEST KANSAS

CITY           SKY/WX    TMP DP  RH WIND       PRES   REMARKS
GOODLAND       SUNNY     40  25  55 NW5       29.94F
HAYS           SUNNY     45  29  53 N12       29.97F
HILL CITY      CLOUDY    42  31  64 N9        29.98F
RUSSELL        SUNNY     46  30  53 N10       29.95F
$$

KSZ061>065-074>080-084>089-172300-
SOUTHWEST KANSAS

CITY           SKY/WX    TMP DP  RH WIND       PRES   REMARKS
DODGE CITY     SUNNY     46  28  49 N12       29.97S
GARDEN CITY    SUNNY     43  27  53 N10       29.97S
GREAT BEND     SUNNY     47  29  49 N8        29.97S
LIBERAL        SUNNY     46  28  49 N9        29.97S
$$

KSZ066>073-081>083-090>101-172300-
SOUTHEAST KANSAS

CITY           SKY/WX    TMP DP  RH WIND       PRES   REMARKS
CHANUTE        CLOUDY    46  44  93 S6        30.03R
COFFEYVILLE    CLOUDY    47  44  90 S6        30.03R
HUTCHINSON     MOSUNNY   53  38  56 CALM      29.95F
MEDICINE LODGE   N/A     50  33  52 S5        29.96F
NEWTON         CLOUDY    46  39  76 S10       29.99R
PARSONS        CLOUDY    46  45  96 S3        30.04R
WICHITA INTL   CLOUDY    47  40  76 S6        29.99S
WICHITA JABRA  CLOUDY    45  40  82 SW6       29.99S
WICHITA MCCONL CLOUDY    46  39  77 SW6       29.99S
WINFIELD       CLOUDY    47  42  83 SW5       30.01R
$$

KSZ007>012-019>026-033>040-048>060-102>105-172300-
NORTHEAST KANSAS

CITY           SKY/WX    TMP DP  RH WIND       PRES   REMARKS
CONCORDIA      CLEAR     45  30  55 NW7       29.97R
EMPORIA        CLOUDY    49  41  74 S13       29.97R
LAWRENCE       CLOUDY    50  44  80 SE3       29.99R
MANHATTAN      PTCLDY    53  40  61 SW3       29.96S
OLATHE IND     CLOUDY    47  44  90 S7        29.99S
OLATHE EXE     CLOUDY    46  43  89 S6        29.99R
SALINA         SUNNY     52  34  50 NW5       29.96F
TOPEKA BILLARD CLOUDY    50  43  77 S3        29.98R
TOPEKA FORBES  PTCLDY    52  43  71 SE3       29.98R
$$




USA.gov is the U.S. government's official web portal to all federal, state and local government web resources and services.